Regional Weather Roundup
Issued by NWS Austin/San Antonio, TX

Home | Current Version | Previous Version | Text Only | Print | Product List | Glossary On
Versions: 1 2 3 4 5 6 7 8 9 10 11 12 13 14 15 16 17 18 19 20 21 22 23 24 25 26 27 28 29 30 31 32 33 34 35 36 37 38 39 40 41 42 43 44 45 46 47 48 49 50
641
ASUS44 KEWX 242010
RWREWX
SOUTH TEXAS REGIONAL WEATHER ROUNDUP
NATIONAL WEATHER SERVICE AUSTIN/SAN ANTONIO TX
300 PM CDT SUN JUN 24 2018

NOTE: "FAIR" INDICATED FEW OR NO CLOUDS BELOW 12,000 FEET WITH NO
SIGNIFICANT WEATHER AND/OR OBSTRUCTIONS TO VISIBILITY.

* - THESE STATIONS ARE NOT NWS OR FAA STATIONS...AND ARE NOT SUBJECT
    TO NWS AND FAA QUALITY CONTROL.

TXZ171-172-183>190-242100-
TEXAS HILL COUNTRY AND EDWARDS PLATEAU

CITY           SKY/WX    TMP DP  RH WIND       PRES   REMARKS
JUNCTION       SUNNY    100  62  28 S17G25    29.82F HX 101
*LLANO         SUNNY    100  64  30 SE14G22   29.86S HX 103
BURNET         SUNNY     97  65  34 SE14G24   29.88F HX  99
*HORSESHOE BAY SUNNY     97  62  31 SE13G23   29.86S HX  98
*KERRVILLE     MOSUNNY   97  63  32 SE18G28   29.88S HX  98
*FREDERICKSBRG SUNNY     97  60  28 S16G23    29.87F HX  97
*ROCKSPRINGS   SUNNY     95  61  31 S18G28    29.92F HX  95
*BOERNE STAGE  MOSUNNY   93  64  38 SE14G21   29.89F HX  95
*CASTROVILLE   SUNNY     98  63  31 S15G21    29.86S HX  99
HONDO          MOSUNNY  101  67  32 SE18G25   29.85S HX 106
*UVALDE        MOSUNNY  100  65  32 SE15G23   29.82F HX 103
DEL RIO        SUNNY    102  65  29 SE16G25   29.74F HX 105
LAUGHLIN AFB   MOSUNNY  102  64  28 S18G25    29.75F HX 104
CARRIZO SPRGS  MOSUNNY  102  61  25 S13G28    29.78S HX 103
*EAGLE PASS    CLEAR    104  59  22 SE15G25   29.77S HX 104
*FAITH RANCH   SUNNY    100  61  27 SE14G21   29.79S HX 101
$$

TXZ173-191>194-202-209-217>225-228-242100-
CENTRAL AND SOUTH CENTRAL TEXAS

CITY           SKY/WX    TMP DP  RH WIND       PRES   REMARKS
GEORGETOWN     MOSUNNY   95  71  45 SE17G24   29.88F HX 102
AUSTIN/BERGSTM MOSUNNY   96  69  41 S20G28    29.85F HX 102
AUSTIN/MABRY   MOSUNNY   98  68  37 S12G21    29.87F HX 103
*AUSTIN/EXEC   MOSUNNY   91  72  52 S16G22    29.87F HX  98
*LAGO VISTA    MOSUNNY   96  67  38 S8G21     29.90R HX 100
SAN MARCOS     MOSUNNY   96  72  45 S14G24    29.87F HX 104
NEW BRAUNFELS  MOSUNNY   97  69  40 S22G28    29.84F HX 103
RANDOLPH AFB   MOSUNNY   97  70  41 S21       29.86F HX 103
PT SAN ANTONIO MOSUNNY   99  68  36 SE20G25   29.83F HX 104
SAN ANTONIO    PTSUNNY   96  68  39 SE16G26   29.86F HX 101
STINSON FIELD  MOSUNNY  100  68  35 S15G24    29.83F HX 105
*LA GRANGE     PTSUNNY   93  74  54 S13G18    29.86F HX 103
*GIDDINGS      MOSUNNY   92  71  49 S13G18    29.89F HX  99
*GONZALES      MOSUNNY   94  75  52 S13       29.87S HX 105
$$

TXZ163>164-176>182-195>201-210>213-226-227-235-242100-
SOUTHEAST TEXAS

CITY           SKY/WX    TMP DP  RH WIND       PRES   REMARKS
COLLEGE STN    MOSUNNY   94  73  50 S20G28    29.88F HX 103
*BRYAN         PTSUNNY   91  74  56 S17G23    29.90F HX 100
*CALDWELL      PTSUNNY   93  72  51 S17       29.88F HX 101
*CROCKETT      SUNNY     93  73  52 S12G22    29.91F HX 102
*BRENHAM       MOSUNNY   94  72  49 S13G23    29.90S HX 102
HUNTSVILLE     MOSUNNY   94  72  48 S14G20    29.90F HX 102
CONROE         MOSUNNY   93  76  57 SE17      29.91F HX 105
HOUSTON BUSH   PTSUNNY   92  76  59 S15G25    29.91S HX 104
HOUSTON HOBBY  PTSUNNY   91  76  61 SE16G25   29.91F HX 103
*HOUSTON SW AP FAIR      91  74  58 S13G22    29.93S HX 100
PEARLAND       FAIR      91  74  57 S20       29.94S HX 100
HOUSTON HOOKS  FAIR      93  74  53 S15G22    29.90F HX 103
ELLINGTON FLD  PTSUNNY   90  79  70 S16       29.94F HX 105
SUGAR LAND     FAIR      93  75  55 SE20G25   29.91S HX 104
*HOUSTON EXEC    N/A    N/A N/A N/A MISG        N/A
*CLEVELAND MUN FAIR      93  70  46 S16G23    29.93S HX  99
*WHARTON       MOSUNNY   89  73  60 S16G24    29.92S HX  97
*COLUMBUS      FAIR      91  72  54 S15       29.91S HX  98
*EAGLE LAKE    CLEAR     93  76  58 S18       29.90S HX 105
$$

TXZ214>216-236>238-242100-
THE UPPER TEXAS COAST

CITY           SKY/WX    TMP DP  RH WIND       PRES   REMARKS
*ORANGE        FAIR      89  78  70 S14G20    29.98R HX 102
PORT ARTHUR    FAIR      91  75  59 S26       29.94F HX 101
GALVESTON      FAIR      88  79  74 S21       29.96F HX 103
ANGLETON       FAIR      90  75  61 S20       29.93F HX 100
*BAY CITY      MOSUNNY   89  76  65 S20       29.92F HX 100
PALACIOS       MOSUNNY   89  78  70 SE22G29   29.90F HX 103
$$

TXZ229>234-239>247-242100-
TEXAS COASTAL BEND AND RIO GRANDE PLAINS

CITY           SKY/WX    TMP DP  RH WIND       PRES   REMARKS
VICTORIA       MOSUNNY   92  74  55 SE22G31   29.88F HX 101
*BEEVILLE      MOSUNNY   91  75  60 SE24G31   29.86S HX 101
ROCKPORT       MOSUNNY   89  76  65 SE15G25   29.88F HX 100
*PORT ARANSAS  SUNNY     88  78  72 SE16      29.89F HX 102
*PORT LAVACA   MOSUNNY   90  75  61 SE21      29.90F HX  99
*INGLESIDE     MOSUNNY   90  77  66 S20       29.88F HX 103
CORPUS CHRISTI PTSUNNY   87  79  76 SE21      29.87F HX 101
CORPUS NAS     MOSUNNY   91  78  65 SE17      29.86F HX 106
*ROBSTOWN      MOSUNNY   88  77  68 SE18G24   29.86F HX 100
ALICE          PTSUNNY   92  75  57 SE18G31   29.84F HX 103
KINGSVILLE NAS MOSUNNY   93  75  55 SE23G30   29.84F HX 104
COTULLA        MOSUNNY   99  68  36 SE17      29.80F HX 104
LAREDO         MOSUNNY  100  68  35 SE25G32   29.79F HX 105
$$

TXZ248>255-242100-
DEEP SOUTH TEXAS

CITY           SKY/WX    TMP DP  RH WIND       PRES   REMARKS
BROWNSVILLE    FAIR      92  76  59 SE15      29.84F HX 104
PORT ISABEL    FAIR      90  74  59 SE18G26   29.84S HX  99
*SOUTH PADRE   NOT AVBL
HARLINGEN      MOSUNNY   91  77  63 SE21      29.83S HX 104
*HEBBRONVILLE  MOSUNNY   94  67  42 SE14G22   29.84F HX  97
MCALLEN        MOSUNNY   94  78  60 SE21G31   29.82S HX 110
*WESLACO       NOT AVBL
FALFURRIAS     MOSUNNY   94  74  52 SE15G23   29.83F HX 104
EDINBURG       PTSUNNY   95  74  50 SE17G23   29.83S HX 104
*ZAPATA        FAIR      96  67  37 SE15G23   29.79F HX 100
$$

TXZ213>215-236>238-242>244-246-247-251-254-255-242100-
CMAN STATIONS

STATION/POSITION TIME  TEMP    WIND        PRES    WAVE
                       AIR SEA DIR/SP/G            HT/PER
                 (UTC) (F)     (DEG/KT/KT) (MB)    (FT/S)
SABINE PASS      1942   86 89  180/ 14/ 19 1016.4
SEA RIM ST PARK  2000   86     160/ 13/ 16 1015.1
NORTH JETTY/GLS  1942   84 84  170/ 18/ 19 1014.1
EAGLE POINT      1948   84 85  190/ 12/ 15 1014.0
MORGANS POINT    1942   87 84  150/ 11/ 16 1013.7
MISSION/ARANSAS  1900          130/ 10     1013.0
PORT O`CONNOR    1942   84 85  150/ 16/ 19 1012.4
PORT ARANSAS     2000   83 86  130/ 17/ 18 1011.7
BAFFIN BAY       1942   84 88  110/ 12/ 17 1011.8
PORT ISABEL      1942   86 85  150/ 14/ 18 1010.9
$$




USA.gov is the U.S. government's official web portal to all federal, state and local government web resources and services.